WD6FGE Weather Reports


time (UTC)temp
F
wind
direction
speed
knots
gust
knots
rain 1hr
in
rain 24hr
in
rain mn
in
humidity
%
barometer
mb
20180624033744 73 288 0.0 1.7 0.00 0.00 0.00 40 1007.6
20180624032804 75 298 0.0 1.7 0.00 0.00 0.00 38 1007.6
20180624031730 78 298 0.9 2.6 0.00 0.00 0.00 34 1007.6
20180624030735 80 61 0.0 2.6 0.00 0.00 0.00 31 1007.5
20180624025717 82 355 0.9 5.2 0.00 0.00 0.00 24 1007.5
20180624024708 83 26 0.0 5.2 0.00 0.00 0.00 25 1007.4
20180624023636 84 44 0.9 4.3 0.00 0.00 0.00 23 1007.3
20180624022605 85 5 0.9 7.0 0.00 0.00 0.00 21 1007.2
20180624021547 85 340 1.7 7.0 0.00 0.00 0.00 22 1007.2
20180624020558 86 0 1.7 6.1 0.00 0.00 0.00 21 1007.2
20180624015609 86 59 1.7 7.8 0.00 0.00 0.00 21 1007.1
20180624014604 86 318 2.6 8.7 0.00 0.00 0.00 21 1007.1
20180624013558 87 15 2.6 8.7 0.00 0.00 0.00 20 1007.2
20180624012609 87 5 1.7 6.1 0.00 0.00 0.00 21 1007.3
20180624011558 88 246 1.7 6.1 0.00 0.00 0.00 18 1007.4
20180624010620 89 165 0.9 6.1 0.00 0.00 0.00 19 1007.4
20180624005638 89 45 1.7 6.1 0.00 0.00 0.00 16 1007.4
20180624004635 90 116 0.9 7.0 0.00 0.00 0.00 19 1007.5
20180624003634 90 130 2.6 7.0 0.00 0.00 0.00 17 1007.6
20180624002632 89 342 2.6 8.7 0.00 0.00 0.00 16 1007.7
20180624001605 90 92 1.7 8.7 0.00 0.00 0.00 16 1007.9
20180624000541 91 5 2.6 8.7 0.00 0.00 0.00 14 1007.9
20180623235541 91 20 0.9 7.8 0.00 0.00 0.00 17 1007.9
20180623234544 90 329 2.6 7.8 0.00 0.00 0.00 15 1007.9
20180623233543 90 88 1.7 6.1 0.00 0.00 0.00 16 1007.9
20180623232605 90 95 1.7 7.0 0.00 0.00 0.00 18 1008.0
20180623231613 89 37 1.7 7.0 0.00 0.00 0.00 17 1008.2
20180623230548 89 67 1.7 7.0 0.00 0.00 0.00 16 1008.3
20180623225540 90 294 2.6 7.0 0.00 0.00 0.00 15 1008.4
20180623224522 89 294 2.6 6.1 0.00 0.00 0.00 16 1008.4
20180623223539 88 13 3.5 11.3 0.00 0.00 0.00 15 1008.5
20180623222535 88 102 2.6 11.3 0.00 0.00 0.00 18 1008.5
20180623221543 88 90 2.6 7.0 0.00 0.00 0.00 17 1008.8
20180623220515 88 26 2.6 9.6 0.00 0.00 0.00 16 1008.9
20180623215510 88 144 2.6 9.6 0.00 0.00 0.00 18 1008.9
20180623214446 88 279 1.7 7.8 0.00 0.00 0.00 16 1009.0
20180623213459 87 302 2.6 7.8 0.00 0.00 0.00 17 1009.1
20180623212504 87 326 1.7 7.0 0.00 0.00 0.00 19 1009.1
20180623211501 87 355 3.5 8.7 0.00 0.00 0.00 18 1009.2
20180623210446 86 0 2.6 8.7 0.00 0.00 0.00 20 1009.2
20180623205448 86 284 2.6 8.7 0.00 0.00 0.00 18 1009.3
20180623204449 85 5 1.7 8.7 0.00 0.00 0.00 23 1009.4
20180623203429 84 178 1.7 9.6 0.00 0.00 0.00 26 1009.5
20180623202412 84 324 2.6 9.6 0.00 0.00 0.00 25 1009.6
20180623201436 83 79 1.7 8.7 0.00 0.00 0.00 25 1009.7
20180623200426 83 57 3.5 8.7 0.00 0.00 0.00 25 1009.9
20180623195415 81 30 2.6 7.8 0.00 0.00 0.00 27 1009.9
20180623194410 81 355 3.5 9.6 0.00 0.00 0.00 24 1010.1
20180623193429 82 335 4.3 11.3 0.00 0.00 0.00 26 1010.1
20180623192440 81 342 3.5 11.3 0.00 0.00 0.00 24 1010.3
20180623191410 80 20 3.5 11.3 0.00 0.00 0.00 27 1010.3
20180623190430 80 28 2.6 8.7 0.00 0.00 0.00 27 1010.5
20180623185409 80 329 2.6 11.3 0.00 0.00 0.00 29 1010.6
20180623184408 78 27 2.6 11.3 0.00 0.00 0.00 29 1010.7
20180623183419 78 51 4.3 10.4 0.00 0.00 0.00 30 1010.9
20180623182356 77 0 2.6 9.6 0.00 0.00 0.00 32 1011.0
20180623181349 77 85 3.5 8.7 0.00 0.00 0.00 36 1011.1
20180623180412 77 21 3.5 10.4 0.00 0.00 0.00 34 1011.1
20180623175422 77 355 3.5 10.4 0.00 0.00 0.00 32 1011.1
20180623174428 77 84 2.6 8.7 0.00 0.00 0.00 36 1011.1
20180623173407 75 287 2.6 10.4 0.00 0.00 0.00 36 1011.1
20180623172410 75 338 4.3 10.4 0.00 0.00 0.00 35 1011.3
20180623171411 74 5 3.5 10.4 0.00 0.00 0.00 37 1011.3
20180623170342 74 89 3.5 7.8 0.00 0.00 0.00 38 1011.5
20180623165333 73 15 2.6 9.6 0.00 0.00 0.00 40 1011.5
20180623164259 73 28 3.5 9.6 0.00 0.00 0.00 40 1011.7
20180623163308 73 333 2.6 7.8 0.00 0.00 0.00 40 1011.7
20180623162333 71 22 2.6 7.8 0.00 0.00 0.00 42 1012.0
20180623161302 71 348 2.6 7.8 0.00 0.00 0.00 47 1012.2
20180623160231 71 46 2.6 7.0 0.00 0.00 0.00 44 1012.2
20180623155220 70 331 2.6 7.0 0.00 0.00 0.00 46 1012.3
20180623154208 69 22 2.6 7.0 0.00 0.00 0.00 46 1012.4
20180623153230 69 344 0.9 7.0 0.00 0.00 0.00 46 1012.5
20180623152200 68 355 0.9 4.3 0.00 0.00 0.00 50 1012.7
20180623151224 67 355 1.7 4.3 0.00 0.00 0.00 52 1012.7
20180623150206 64 64 0.0 2.6 0.00 0.00 0.00 58 1012.7
20180623145133 59 25 0.0 2.6 0.00 0.00 0.00 69 1012.7
20180623144128 55 5 0.0 1.7 0.00 0.00 0.00 78 1012.7
20180623143110 52 251 0.0 0.9 0.00 0.00 0.00 82 1012.7
20180623142056 50 239 0.0 0.0 0.00 0.00 0.00 83 1012.6
20180623141047 48 239 0.0 0.0 0.00 0.00 0.00 83 1012.6
20180623140020 48 239 0.0 0.0 0.00 0.00 0.00 82 1012.5
20180623135005 47 240 0.0 0.0 0.00 0.00 0.00 82 1012.4
20180623134010 46 240 0.0 0.0 0.00 0.00 0.00 82 1012.3
20180623133020 46 240 0.0 0.0 0.00 0.00 0.00 80 1012.3
20180623132009 46 240 0.0 0.0 0.00 0.00 0.00 79 1012.1
20180623130947 46 240 0.0 0.0 0.00 0.00 0.00 78 1012.1
20180623125921 46 240 0.0 0.0 0.00 0.00 0.00 77 1012.0
20180623124852 46 240 0.0 0.0 0.00 0.00 0.00 76 1012.0
20180623123915 46 240 0.0 0.0 0.00 0.00 0.00 75 1011.9
20180623122925 47 240 0.0 0.0 0.00 0.00 0.00 76 1011.8
20180623121903 47 240 0.0 0.0 0.00 0.00 0.00 75 1011.8
20180623120835 47 240 0.0 0.0 0.00 0.00 0.00 75 1011.7
20180623115851 48 238 0.0 0.0 0.00 0.00 0.00 74 1011.6
20180623114836 48 238 0.0 0.0 0.00 0.00 0.00 74 1011.6
20180623113856 48 238 0.0 0.0 0.00 0.00 0.00 72 1011.6
20180623112821 49 238 0.0 0.0 0.00 0.00 0.00 70 1011.6
20180623111750 50 238 0.0 0.0 0.00 0.00 0.00 74 1011.7
20180623110723 49 238 0.0 0.0 0.00 0.00 0.00 71 1011.7
20180623105709 50 238 0.0 0.0 0.00 0.00 0.00 70 1011.6
20180623104638 50 238 0.0 0.0 0.00 0.00 0.00 69 1011.7
20180623103653 51 238 0.0 0.0 0.00 0.00 0.00 69 1011.8
20180623102623 52 238 0.0 0.0 0.00 0.00 0.00 67 1011.7
20180623101557 52 238 0.0 0.0 0.00 0.00 0.00 67 1011.7
20180623100556 53 238 0.0 0.0 0.00 0.00 0.00 67 1011.6
20180623095554 54 238 0.0 0.0 0.00 0.00 0.00 66 1011.6
20180623094612 54 238 0.0 1.7 0.00 0.00 0.00 66 1011.6
20180623093621 55 171 0.0 0.9 0.00 0.00 0.00 64 1011.6
20180623092554 56 171 0.0 0.9 0.00 0.00 0.00 63 1011.6
20180623090600 56 170 0.0 0.0 0.00 0.00 0.00 63 1011.5
20180623085613 57 170 0.0 0.0 0.00 0.00 0.00 64 1011.4
20180623084635 59 292 0.0 0.0 0.00 0.00 0.00 57 1011.4
20180623083615 59 292 0.0 1.7 0.00 0.00 0.00 56 1011.4
20180623082631 60 51 0.0 0.0 0.00 0.00 0.00 56 1011.3
20180623081621 61 51 0.0 0.9 0.00 0.00 0.00 54 1011.4
20180623080620 64 51 0.0 3.5 0.00 0.00 0.00 46 1011.2
20180623075615 64 355 0.9 3.5 0.00 0.00 0.00 45 1011.2
20180623074611 64 10 0.0 1.7 0.00 0.00 0.00 46 1011.4
20180623073557 64 10 0.0 0.9 0.00 0.00 0.00 46 1011.3
20180623072552 65 10 0.9 5.2 0.00 0.00 0.00 45 1011.3
20180623071547 65 34 0.9 5.2 0.00 0.00 0.00 46 1011.4
20180623070525 64 9 0.9 3.5 0.00 0.00 0.00 47 1011.3
20180623065529 63 312 0.0 4.3 0.00 0.00 0.00 50 1011.2
20180623064541 63 51 0.0 4.3 0.00 0.00 0.00 52 1011.1
20180623063527 62 349 0.0 1.7 0.00 0.00 0.00 53 1011.0
20180623062521 62 258 0.0 0.0 0.00 0.00 0.00 58 1011.1
20180623061451 63 163 0.0 0.0 0.00 0.00 0.00 60 1010.9
20180623060441 63 163 0.0 0.0 0.00 0.00 0.00 59 1010.8
20180623055438 64 163 0.0 0.0 0.00 0.00 0.00 59 1010.8
20180623054428 64 163 0.0 0.0 0.00 0.00 0.00 59 1010.7
20180623053407 65 290 0.0 0.0 0.00 0.00 0.00 58 1010.6
20180623052414 65 290 0.0 0.0 0.00 0.00 0.00 56 1010.6
20180623051425 66 290 0.0 0.0 0.00 0.00 0.00 54 1010.3
20180623050354 67 284 0.0 0.9 0.00 0.00 0.00 53 1010.1
20180623045325 67 284 0.0 0.0 0.00 0.00 0.00 52 1009.8
20180623044313 67 284 0.0 0.0 0.00 0.00 0.00 52 1009.7
20180623043259 67 284 0.0 0.0 0.00 0.00 0.00 51 1009.4
20180623042305 68 284 0.0 0.9 0.00 0.00 0.00 50 1009.2
20180623041310 69 284 0.0 0.0 0.00 0.00 0.00 48 1009.0
20180623040317 71 284 0.0 0.0 0.00 0.00 0.00 45 1008.9
20180623035246 73 284 0.0 1.7 0.00 0.00 0.00 42 1008.7
20180623034219 74 254 0.0 0.9 0.00 0.00 0.00 44 1008.6